Regional Weather Roundup
Issued by NWS

Home | Current Version | Previous Version | Text Only | Print | Product List | Glossary Off
Versions: 1 2 3 4 5 6 7 8 9 10 11 12 13 14 15 16 17 18 19 20 21 22 23 24 25 26 27 28 29 30 31 32 33 34 35 36 37 38 39 40 41 42 43 44 45 46 47 48 49 50

000
ASUS43 KLOT 271506
RWRIL

ILLINOIS REGIONAL WEATHER ROUNDUP
NATIONAL WEATHER SERVICE CHICAGO/ROMEOVILLE IL
1000 AM CDT WED AUG 27 2014

NOTE: "FAIR" INDICATES FEW OR NO CLOUDS BELOW 12,000 FEET WITH NO
SIGNIFICANT WEATHER AND/OR OBSTRUCTIONS TO VISIBILITY.

* THESE STATIONS ARE NOT UNDER NWS QUALITY CONTROL. THEY ALSO MAY NOT
  REPORT WEATHER SUCH AS PRECIPITATION OR FOG.

ILZ001-002-007-009-015-016-024-271600-
NORTHWEST ILLINOIS

CITY           SKY/WX    TMP DP  RH WIND       PRES   REMARKS
MOLINE         PTSUNNY   74  61  63 E7        30.15R
STERLING*      PTSUNNY   72  63  73 E7        30.16S
SAVANNA*       PTSUNNY   74  57  56 E6        30.17R
$$

ILZ003-004-008-010-011-017-018-271600-
NORTH CENTRAL ILLINOIS

CITY           SKY/WX    TMP DP  RH WIND       PRES   REMARKS
ROCKFORD       PTSUNNY   74  59  59 E3        30.18R
FREEPORT*      MOSUNNY   70  62  75 CALM      30.20R
ROCHELLE*      PTSUNNY   71  61  71 CALM      30.17R
DE KALB*       PTSUNNY   70  62  76 E5        30.18R
PERU*          PTSUNNY   75  66  73 E6        30.15S
$$

ILZ005-006-012>014-019>023-271600-
NORTHEAST ILLINOIS

CITY           SKY/WX    TMP DP  RH WIND       PRES   REMARKS
CHICAGO-OHARE  PTSUNNY   75  59  57 NE7       30.14S
CHICAGO-MIDWAY PTSUNNY   76  63  64 E5        30.14S
AURORA         PTSUNNY   74  63  68 CALM      30.16R
LANSING*       SUNNY     74  62  66 NE6       30.15R
JOLIET*        MOSUNNY   74  62  67 CALM      30.16R
WAUKEGAN       MOSUNNY   71  62  73 NE8       30.14S
DUPAGE AIRPORT MOSUNNY   76  64  66 VRB3      30.15R
KANKAKEE*      SUNNY     75  64  67 E7        30.14S
WHEELING       MOSUNNY   74  64  71 E7        30.16S
MORRIS*        MOSUNNY   74  66  76 E3        30.14S
ROMEOVILLE*    MOSUNNY   73  64  71 SE3       30.15R
NORTHERLY ISL    N/A     72  62  71 NE6         N/A
$$

LMZ740>746-271600-
SOUTHERN LAKE MICHIGAN

STATION/POSITION SKY/WX   TEMP    WIND        PRES    VSBY  WAVE
                          AIR SEA DIR/SP/G                  HT/PER
                          (F)     (DEG/KT/KT) (MB)    (MI)  (FT/S)
SOUTHERN BUOY              68 69  100/  6/  6 1020.9F         0
WAUKEGAN HARBOR            68      20/  9/ 10   N/A
HARRISON CRIB              70      60/  6/  7   N/A
BURNHAM HARBOR             72      50/  5/  8   N/A
CALUMET HARBOR             71      40/  5/  7 1019.7R
MICHIGAN CITY              69      20/  9/ 10   N/A
MICHIGAN CITY 6N           71 73   80/  6/  8   N/A           1/ 2
ST. JOSEPH                 70 74   60/  4/  6   N/A           1
$$

ILZ025>027-034>036-040-047-049-050-058-095>099-271600-
WEST-CENTRAL ILLINOIS

CITY           SKY/WX    TMP DP  RH WIND       PRES   REMARKS
QUINCY         PTSUNNY   79  71  76 NE7       30.12R HX  82
GALESBURG*     MOSUNNY   80  70  71 E7        30.15R HX  83
MACOMB*        PTSUNNY   76  69  80 NE7       30.16S
JACKSONVILLE*  SUNNY     81  73  75 E6        30.13S HX  86
PITTSFIELD*    MOSUNNY   81  72  74 E7        30.13S HX  85
$$

ILZ028>032-037-038-041>044-048-051>054-059>061-271600-
CENTRAL ILLINOIS

CITY           SKY/WX    TMP DP  RH WIND       PRES   REMARKS
PONTIAC        SUNNY     79  66  65 E5        30.14S HX  81
DECATUR        SUNNY     79  71  76 NE5       30.13R HX  82
PEORIA         MOSUNNY   80  68  66 SE6       30.14R HX  83
LACON*         MOSUNNY   76  67  72 NE3       30.13S
LINCOLN*       CLOUDY    75  71  88 E5        30.10S FOG
SPRINGFIELD    SUNNY     81  71  71 E3        30.12S HX  85
TAYLORVILLE    SUNNY     79  70  73 CALM      30.12S HX  81
$$

ILZ033-039-045-046-055>057-062-063-271600-
EAST-CENTRAL ILLINOIS

CITY           SKY/WX    TMP DP  RH WIND       PRES   REMARKS
CHAMPAIGN      SUNNY     78  72  81 E5        30.13R HX  80
DANVILLE*      HVY RAIN  76  72  85 E5        30.10S
RANTOUL*       CLOUDY    77  71  82 E3        30.14S
MATTOON        SUNNY     82  70  66 CALM      30.11S HX  86
PARIS*         SUNNY     79  71  77 CALM      30.13S HX  82
$$

ILZ079-100>102-271600-
SOUTHWEST ILLINOIS

CITY           SKY/WX    TMP DP  RH WIND       PRES   REMARKS
ALTON          SUNNY     81  73  78 CALM      30.12R HX  85
BELLEVILLE     SUNNY     82  75  79 E5        30.10F HX  89
SPARTA*        SUNNY     83  76  81 CALM      30.12S HX  91
$$

ILZ064>066-069>071-074>076-080>082-084>086-088>090-092>094-271600-
SOUTH-CENTRAL ILLINOIS

CITY           SKY/WX    TMP DP  RH WIND       PRES   REMARKS
CARBONDALE     SUNNY     84  76  76 CALM      30.11S HX  93
CAIRO*         SUNNY     86  75  70 NW3       30.11R HX  95
EFFINGHAM*     SUNNY     83  65  55 CALM      30.13S HX  84
MARION         SUNNY     86  75  70 NW6       30.12R HX  95
MT. VERNON     SUNNY     82  73  74 CALM      30.12S HX  88
SALEM*         SUNNY     84  75  73 SE3       30.12S HX  92
METROPOLIS*    SUNNY     85  72  65 CALM      30.11R HX  91
$$

ILZ067-068-072-073-078-083-087-091-271600-
SOUTHEAST ILLINOIS

CITY           SKY/WX    TMP DP  RH WIND       PRES   REMARKS
LAWRENCEVILLE  SUNNY     83  74  74 NE5       30.11R HX  89
FLORA*         SUNNY     81  72  74 CALM      30.12S HX  85
FAIRFIELD*     SUNNY     84  79  84 CALM      30.11R HX  96
HARRISBURG*    SUNNY     84  75  73 CALM      30.12S HX  92
ROBINSON*      SUNNY     84  73  69 CALM      30.13R HX  91
CARMI*         SUNNY     84  79  84 CALM      30.10S HX  96
$$

ABBREVIATIONS USED IN REMARKS
   TC - TEMPERATURE IN CELSIUS
  WCI - WIND CHILL INDEX
   HX - HEAT INDEX
  VSB - VISIBILITY
$$



USA.gov is the U.S. government's official web portal to all federal, state and local government web resources and services.